Location: Son del Pino
(42.6196°N, 1.0952°E)
Time: 09:51:33
(UTC+00:00)

Daily predictions for brighter satellites

Satellite Brightness Start Highest point End
(mag) Time Altitude Azimuth Time Altitude Azimuth Time Altitude Azimuth
Cosmos 2219 Rocket 2.4 17:42:46 10° NNW 17:48:22 77° WSW 17:53:55 10° SSE
AQUARIUS 4.1 17:44:27 10° SSE 17:48:50 88° ENE 17:53:17 10° NNW
SJ-12 3.7 17:45:28 10° SSE 17:49:16 89° ENE 17:53:04 10° NNW
COSMO-SKYMED 1 3.3 17:45:42 10° NE 17:49:19 29° E 17:52:53 10° SSE
NOSS 3-3 (A) 3.8 17:44:42 10° SSW 17:49:31 50° ESE 17:55:07 10° NE
MOS 1 Rocket 4.4 17:47:03 10° S 17:51:30 49° W 17:55:46 10° NNW
IRS-P3 4.1 17:46:45 10° SSE 17:52:01 69° ENE 17:57:19 10° N
Resurs 1-3 3.9 17:49:22 10° SE 17:53:25 41° ENE 17:57:28 10° N
Cosmos 2322 4.0 17:47:56 10° NNW 17:53:27 47° ENE 17:58:56 10° SE
USA 306 3.6 17:52:04 10° NNW 17:53:31 13° NNE 17:54:44 10° NE
Cosmos 2016 Rocket 4.0 17:49:59 10° N 17:56:12 68° E 18:02:28 10° SSE
Cosmos 1025 Rocket 3.5 17:52:41 10° SSE 17:56:37 37° E 18:00:35 10° NNE
Cosmos 2242 Rocket 3.7 17:52:20 10° S 17:56:44 79° W 18:01:07 10° N
Cosmos 1802 Rocket 4.1 17:53:10 10° N 17:59:36 85° E 18:06:02 10° S
Cosmos 2227 Rocket 3.9 18:00:26 10° ESE 18:02:06 11° E 18:03:35 10° E
SPOT 1/Viking Rocket 3.5 17:57:04 10° SSE 18:02:11 86° ENE 18:07:20 10° NNW
SJ-6B 4.2 18:05:12 11° E 18:06:52 14° ENE 18:08:43 10° NNE
CZ-2D R/B 4.2 18:06:44 10° S 18:09:38 41° W 18:12:34 10° NNW
CZ-2D R/B 3.4 18:07:32 10° SSE 18:11:17 51° ENE 18:15:08 10° N
Cosmos 2233 Rocket 4.0 18:05:56 10° N 18:12:11 66° E 18:18:26 10° SSE
Cosmos 1674 Rocket 3.5 18:08:23 10° S 18:12:44 74° E 18:17:08 10° NNE
Meteor 1-11 4.2 18:10:25 10° S 18:16:00 87° E 18:21:44 10° N
Cosmos 1725 Rocket 4.2 18:10:52 10° N 18:17:07 79° W 18:23:22 10° S
Cosmos 1315 Rocket 2.6 18:14:11 10° N 18:17:59 86° ENE 18:21:47 10° S
Lacrosse 5 rocket 3.0 18:22:20 10° W 18:25:04 21° NNW 18:27:53 10° NNE
Atlas Centaur 2 4.1 18:19:26 10° SW 18:25:40 27° S 18:30:59 11° ESE
Cosmos 2061 Rocket 4.0 18:20:59 10° N 18:27:23 76° E 18:33:41 10° SSE
Helios 1A Rocket 3.6 18:28:45 21° ESE 18:28:45 21° ESE 18:31:05 10° SSE
CZ-4C R/B 2.0 18:26:07 10° SW 18:30:08 63° NW 18:35:16 10° NNE
BlueWalker 3 4.2 18:30:01 10° W 18:32:51 22° SW 18:35:39 10° S
Cosmos 2151 Rocket 3.8 18:28:28 10° N 18:32:59 77° W 18:37:27 10° S
Meteor 2-1 Rocket 4.2 18:27:21 10° N 18:33:10 76° E 18:39:03 10° SSE
Radarsat Rocket 3.9 18:27:25 10° SSE 18:33:13 79° ENE 18:39:21 10° NNW
CARTOSAT-1 3.4 18:29:11 10° SSE 18:33:19 64° ENE 18:37:29 10° N
Tiangong -0.4 18:34:06 10° SSW 18:36:29 20° SSE 18:37:06 19° SE
USA 290 4.5 18:35:19 10° WSW 18:38:01 25° WNW 18:40:44 10° N
NOSS 0 Rocket 3.9 18:33:04 10° NNW 18:39:20 72° ENE 18:45:32 10° SSE
Cosmos 1356 Rocket 3.8 18:36:41 10° NNW 18:40:33 62° W 18:44:28 10° S
Cosmos 2297 Rocket 2.1 18:40:40 10° SSW 18:46:15 68° ESE 18:51:54 10° NNE
Cosmos 1570 Rocket 4.1 18:42:13 10° S 18:47:21 54° ESE 18:52:29 10° NNE
Cosmos 1464 Rocket 4.5 18:41:51 10° N 18:47:42 37° ENE 18:53:29 10° SE
Cosmos 2344 4.2 18:41:18 10° S 18:48:21 31° ESE 18:51:12 24° ENE
CSL-04 Rocket 4.4 18:47:26 26° E 18:48:27 28° ENE 18:52:55 10° N
BREEZE-M DEB (TANK) 4.1 18:46:31 10° NW 18:50:19 61° NNE 18:56:52 22° E
Cosmos 1975 Rocket 3.6 18:46:33 10° SSE 18:50:28 33° E 18:50:37 33° E
Cosmos 1455 Rocket 3.0 18:49:04 10° N 18:53:17 54° E 18:57:29 10° SSE
YAOGAN 1 3.8 18:51:14 10° S 18:55:15 42° W 18:59:19 10° NNW
Cosmos 2221 Rocket 4.0 18:50:54 10° SSW 18:55:18 64° W 18:59:46 10° N
Cosmos 1125 Rocket 3.4 18:50:54 10° NNW 18:56:06 84° ENE 19:01:19 10° SSE
Delta 2 Rocket 4.5 18:58:17 10° SW 19:00:39 20° S 19:00:39 20° S
NOAA 6 4.3 18:56:24 10° S 19:01:30 70° WSW 19:06:39 10° NNW
Okean 2 Rocket 4.1 18:57:52 10° NNW 19:02:06 47° W 19:06:17 10° SSW
Meteor 1-27 4.2 18:58:32 10° N 19:04:18 68° ENE 19:10:05 10° SSE
Cosmos 2208 Rocket 4.0 18:59:29 10° S 19:04:32 55° ESE 19:07:29 25° NE
Okean 1 Rocket 3.9 19:01:08 10° NNW 19:05:25 51° W 19:09:38 10° S
NOSS 3-3 (C) 4.5 19:06:16 10° WSW 19:11:17 49° NW 19:16:44 12° NNE
Meteor 2-17 Rocket 4.3 19:07:18 10° S 19:13:20 75° E 19:19:23 10° NNE
COSMOS 2428 3.7 19:07:56 10° NW 19:13:24 47° WSW 19:18:50 10° S
Resurs 01 Rocket 2.2 19:11:43 10° S 19:16:03 58° W 19:20:23 10° NNW
Cosmos 1980 3.6 19:11:30 10° NNW 19:17:11 85° ENE 19:20:52 23° SSE
Cosmos 2263 Rocket 3.8 19:14:56 10° SSE 19:16:37 18° SSE 19:16:37 18° SSE
Cosmos 44 Rocket 3.2 19:15:40 10° SSW 19:20:30 71° ESE 19:21:20 58° ENE
ATLAS 5 CENTAUR R/B 4.2 19:17:58 10° WNW 19:21:46 24° WSW 19:26:10 10° SSW
Cosmos 773 Rocket 3.9 19:16:35 10° SSW 19:21:51 85° ESE 19:25:06 24° NNE
Cosmos 2237 Rocket 2.1 19:17:06 10° NNW 19:22:48 87° ENE 19:25:52 29° SSE
Aureole 3 Rocket 4.1 19:22:17 10° NNW 19:25:55 35° W 19:28:55 10° SSW
Cosmos 2228 4.1 19:23:22 10° N 19:25:37 31° N 19:25:37 31° N
Orbus 7S? 4.3 19:21:59 10° NW 19:28:58 46° NNE 19:28:58 46° NNE
Cosmos 2150 Rocket 4.1 19:29:34 10° NNW 19:33:58 56° NNE 19:33:58 56° NNE
Cosmos 2298 Rocket 4.2 19:30:12 10° NNW 19:34:42 55° NNE 19:34:42 55° NNE
SJ-6B 4.1 19:39:26 32° WSW 19:39:55 34° W 19:43:06 10° NNW
BREEZE-M DEB (TANK) 4.0 19:37:28 10° WNW 19:42:02 68° SW 19:46:30 30° SE
Cosmos 2227 Rocket 2.0 19:39:32 10° SSW 19:45:10 86° ESE 19:45:30 80° NE
SPOT 5 3.4 19:47:23 51° NNW 19:47:23 51° NNW 19:51:08 10° NNW
SL-16 R/B 3.4 19:41:08 10° NNW 19:44:20 29° NNE 19:44:20 29° NNE
NOSS 3-4 (A) 3.8 19:54:27 10° NW 20:01:25 90° SW 20:02:40 67° SSE
NOSS 3-4 (C) 3.8 19:54:43 10° NW 20:01:42 90° ENE 20:02:53 68° SE
Cosmos 2034 Rocket 3.9 19:57:15 10° N 20:02:53 76° N 20:02:53 76° N
BREEZE-M DEB (TANK) 3.9 19:52:11 10° W 20:10:07 71° N 20:10:45 67° NNE
Atlas Centaur 2 3.9 20:07:48 10° WSW 20:12:54 26° SSW 20:12:54 26° SSW
CZ-4C R/B 4.4 20:16:57 10° WNW 20:19:43 15° NNW 20:21:06 14° N
BREEZE-M (TANK) 4.4 20:25:28 10° WNW 20:28:31 49° WSW 20:28:31 49° WSW
Cosmos 2297 Rocket 4.4 20:26:37 10° W 20:30:49 21° NW 20:34:29 12° N
Cosmos 2344 4.2 20:54:43 10° WSW 21:01:17 49° WNW 21:01:17 49° WNW
